www.pogodaiklimat.ru

Погода и климат >> Архив погоды >> Турция >> Акхисар


ПОГОДА в Акхисаре

  • Прогноз погоды в Акхисаре
  • Монитор погоды в Акхисаре

АРХИВ ПОГОДЫ в Акхисаре

Время (UTC), дата Ветер
(напр.,м/с)
 
Видим.   Явления Облачность Т
(С)
Тd
(С)
f
(%)
Тe
(С)
Тes
(С)
Комфортность P
(гПа)
Po
(гПа)
Тmin
(С)
Tmax
(С)
R
(мм)
R24
(мм)
S
(см)
16 12.06 СВ 2 4500 м гроза, ливневой дождь 9/8 600 м
[Cb cap Ac und]
+21.3 +20.4 95 +27 +27 душно 1011.5 1000.8
17 12.06 ЮВ 1 9000 м гроза, ливневой дождь 8/8 600 м
[Cb cap]
+19.7 +19.5 99 +24 +24 комфорт 1011.5 1000.8
18 12.06 В 1
{7}
20 км в посл. час гроза 8/5 900 м
[St Ac cast]
+20.4 +20.3 99 +26 +26 душно 1011.8 1001.1 +31.7 15
19 12.06 Ю 1 11 км 8/5 1000 м
[Cu med, cong Ac und]
+20.3 +20.2 99 +26 +26 душно 1012.1 1001.5
20 12.06 З 1 10 км 6/5 1000 м
[Cu med, cong Ac und]
+20.0 +20.0 100 +25 +25 комфорт 1011.9 1001.3
21 12.06 СВ 1
{1}
4800 м дымка 3/0
[Ci fib]
+20.1 +20.1 100 +25 +25 комфорт 1012.0 1001.4
22 12.06 Ю 1 3200 м дымка 3/0
[Ci fib]
+19.7 +19.7 100 +24 +24 комфорт 1012.1 1001.5
23 12.06 СЗ 1 6000 м дымка 3/0
[Ci fib]
+19.3 +19.2 99 +23 +23 комфорт 1012.3 1001.8
00 13.06 штиль 0
{2}
2500 м дымка 3/0
[Ci fib]
+19.2 +19.2 100 +21 +21 комфорт 1012.1 1001.6
01 13.06 штиль 0 2500 м дымка 3/0
[Ci fib]
+19.0 +19.0 100 +21 +21 комфорт 1012.0 1001.4
02 13.06 штиль 0 4800 м дымка 3/0
[Ci fib]
+18.7 +18.7 100 +20 +20 1012.0 1001.3
03 13.06 ЮВ 1
{2}
2000 м дымка 3/0
[Ci fib]
+18.2 +18.2 100 +20 +20 1012.3 1001.6
04 13.06 штиль 0 1200 м дымка 5/1 1000 м
[Cu hum Ac lent Ci fib]
+18.6 +18.6 100 +20 +21 1012.5 1001.8
05 13.06 З 1 4900 м дымка 4/0
[Ac lent Ci fib]
+19.7 +19.7 100 +24 +28 комфорт 1013.1 1002.4
06 13.06 СЗ 1
{2}
15 км 3/0
[Ac lent]
+21.6 +21.6 100 +28 +35 очень
душно
1013.5 1002.8 +18.1
07 13.06 СЗ 1 20 км 3/0
[Ac lent]
+26.0 +19.9 69 +32 +43 очень
душно
1013.6 1003.0
08 13.06 СЗ 1 20 км 5/3 1000 м
[Cu med, cong Ac lent]
+26.9 +19.3 63 +32 +43 очень
душно
1013.7 1003.1
09 13.06 СВ 1
{4}
20 км 4/4 1200 м
[Cu med, cong]
+29.2 +19.6 56 +35 +49 очень
душно
1013.3 1002.7
10 13.06 С 2 20 км 3/3 1000 м
[Cu hum]
+30.4 +18.5 49 +35 +50 очень
душно
1012.6 1002.1
11 13.06 С 3 20 км 4/3 1000 м
[Cu hum Ci fib]
+32.0 +17.0 41 +36 +48 очень
душно
1012.0 1001.5
12 13.06 С 2
{6}
20 км 3/3 1200 м
[Cu med, cong]
+33.1 +16.8 38 +36 +48 очень
душно
1011.4 1000.9
13 13.06 С 3 20 км 3/3 1000 м
[Cu med, cong]
+33.7 +15.1 33 +36 +43 очень
душно
1010.8 1000.3
14 13.06 С 3 20 км 3/3 1000 м
[Cu med, cong]
+33.9 +15.7 34 +36 +41 душно 1010.5 1000.0
15 13.06 С 3
{7}
20 км 3/3 1200 м
[Cu med, cong]
+34.0 +13.9 30 +35 +38 очень
жарко
1010.4 999.9
16 13.06 С 4 20 км 3/3 1000 м
[Cu med, cong]
+32.4 +13.0 31 +33 +34 жарко 1010.5 1000.0
17 13.06 С 2 20 км 3/3 1000 м
[Cu med, cong]
+30.7 +12.9 34 +32 +32 жарко 1011.3 1000.8
18 13.06 С 3
{8}
20 км 3/0
[Ci fib]
+28.7 +12.9 38 +30 +30 жарко 1011.9 1001.4 +34.3
19 13.06 С 2 20 км 3/0
[Ci fib]
+27.1 +14.1 45 +29 +29 жарко 1012.6 1002.1
20 13.06 С 1 20 км 1/0
[Ci fib]
+25.9 +14.0 48 +28 +28 жарко 1013.3 1002.8
21 13.06 С 2
{6}
20 км ясно +25.1 +14.9 53 +28 +28 жарко 1013.4 1002.9
22 13.06 С 1 20 км ясно +23.0 +15.9 64 +27 +27 душно 1013.1 1002.6
23 13.06 С 1 20 км ясно +22.3 +15.9 67 +26 +26 жарко 1013.2 1002.7
00 14.06 СВ 1
{6}
20 км ясно +21.7 +16.0 70 +25 +25 комфорт 1012.9 1002.4
01 14.06 С 1 20 км ясно +21.5 +15.8 70 +25 +25 комфорт 1012.9 1002.4
02 14.06 С 1 20 км ясно +21.3 +15.9 71 +25 +25 комфорт 1012.8 1002.3
03 14.06 С 1
{4}
20 км ясно +21.3 +15.9 71 +25 +25 комфорт 1013.0 1002.5
04 14.06 СЗ 1 20 км ясно +21.2 +16.2 73 +25 +26 комфорт 1013.1 1002.6
05 14.06 С 1 20 км ясно +23.1 +16.5 66 +28 +32 душно 1013.2 1002.7
06 14.06 С 2
{4}
20 км ясно +26.7 +17.3 56 +31 +39 душно 1013.6 1003.1 +21.0
07 14.06 С 2 20 км ясно +29.5 +16.3 45 +33 +46 душно 1013.2 1002.8
08 14.06 С 3 20 км ясно +31.2 +12.9 33 +32 +47 жарко 1013.1 1002.7
09 14.06 С 2
{5}
20 км 1/1 1200 м
[Cu hum]
+32.4 +13.0 31 +33 +50 жарко 1012.7 1002.3
10 14.06 С 3 20 км 1/1 1000 м
[Cu hum]
+33.2 +13.2 30 +34 +51 опасность
солнечного
удара
1012.4 1002.0
11 14.06 С 4 20 км 3/3 1000 м
[Cu med, cong]
+33.4 +13.9 31 +35 +45 душно 1012.0 1001.6
12 14.06 С 3
{8}
20 км 4/4 900 м
[Cu med, cong]
+34.1 +12.4 27 +34 +43 очень
жарко
1011.3 1000.9
13 14.06 С 3 20 км 4/4 1000 м
[Cu med, cong]
+34.5 +13.3 28 +35 +42 очень
жарко
1010.7 1000.3
14 14.06 С 4 20 км 4/4 1000 м
[Cu med, cong]
+33.6 +13.0 29 +34 +38 очень
жарко
1010.4 1000.0
15 14.06 С 3
{8}
20 км 4/4 1050 м
[Cu med, cong]
+32.3 +12.9 31 +33 +35 жарко 1010.4 999.9
16 14.06 С 4 20 км 3/3 1000 м
[Cu med, cong]
+31.1 +12.8 33 +32 +33 жарко 1010.1 999.6
17 14.06 С 3 20 км 3/3 1000 м
[Cu hum]
+29.3 +13.8 39 +31 +31 жарко 1010.1 999.6
18 14.06 С 3
{9}
20 км 3/3 1200 м
[Cu hum]
+27.6 +14.2 44 +30 +30 жарко 1010.3 999.9 +34.7
19 14.06 С 2 20 км 3/3 1000 м
[Cu hum]
+26.8 +14.5 47 +29 +29 жарко 1011.2 1000.8
20 14.06 С 2 20 км 4/4 1000 м
[Cu med, cong]
+26.2 +15.0 50 +29 +29 жарко 1011.1 1000.7
21 14.06 СЗ 2
{6}
20 км 4/3 1200 м
[Cu med, cong Ac trans]
+25.0 +15.7 56 +28 +28 жарко 1011.5 1001.1
22 14.06 С 2 20 км 4/3 1000 м
[Cu med, cong Ac trans]
+24.1 +15.9 60 +27 +27 жарко 1010.7 1000.3
23 14.06 С 2 20 км 3/0
[Ac trans]
+23.6 +16.5 64 +27 +27 жарко 1010.3 999.9
00 15.06 С 2
{6}
20 км 3/0
[Ac trans]
+22.7 +16.5 68 +27 +27 душно 1009.7 999.3
01 15.06 С 2 20 км ясно +22.2 +16.5 70 +26 +26 душно 1009.7 999.3
02 15.06 С 2 20 км ясно +21.9 +16.7 72 +26 +26 душно 1009.5 999.1
03 15.06 С 2
{4}
20 км ясно +21.8 +17.2 75 +26 +26 душно 1009.7 999.3
04 15.06 С 2 20 км ясно +21.9 +17.3 75 +26 +27 душно 1009.8 999.3
05 15.06 С 1 20 км ясно +23.6 +17.2 67 +27 +32 жарко 1009.6 999.1
06 15.06 С 2
{5}
20 км 4/0
[Ci fib]
+26.1 +17.0 57 +30 +37 душно 1009.4 999.0 +21.6
07 15.06 С 3 20 км 4/1 1000 м
[Cu hum Ci fib]
+27.5 +17.1 53 +31 +40 душно 1008.8 998.4
08 15.06 СЗ 3 20 км 4/3 1000 м
[Cu hum Ci fib]
+28.8 +16.7 48 +32 +41 душно 1008.7 998.3
09 15.06 С 3
{6}
20 км 3/3 1200 м
[Cu med, cong]
+30.4 +15.6 41 +33 +45 душно 1008.3 997.9
10 15.06 С 3 20 км 3/3 1000 м
[Cu med, cong]
+32.3 +15.2 36 +35 +48 очень
душно
1007.8 997.4
11 15.06 С 4 20 км 4/4 1000 м
[Cu med, cong]
+32.1 +15.5 37 +35 +42 очень
душно
1007.0 996.6
12 15.06 С 3
{7}
20 км 4/4 1200 м
[Cu med, cong]
+33.1 +15.5 35 +35 +45 душно 1006.4 996.0
13 15.06 С 3 20 км 6/6 1000 м
[Cu med, cong]
+32.8 +16.1 37 +36 +40 очень
душно
1006.0 995.6
14 15.06 С 4 20 км 6/4 1000 м
[Cu med, cong Ci fib]
+32.4 +16.6 39 +36 +39 очень
душно
1005.7 995.3
15 15.06 С 4
{8}
20 км 6/3 1200 м
[Cu med, cong Ac und]
+32.0 +16.6 40 +35 +37 очень
душно
1005.9 995.5
16 15.06 С 3 20 км 9/3 1000 м
[Cu med, cong Ac lent Cs]
+29.5 +17.0 47 +33 +34 душно 1006.5 996.0
17 15.06 С 2 20 км 9/3 1000 м
[Cu med, cong Ac und Cs]
+28.9 +17.1 49 +33 +33 очень
душно
1007.3 996.9
18 15.06 ЮЗ 2
{8}
20 км гроза без осадков 9/8 750 м
[Cb cap Ac As]
+27.0 +17.2 55 +31 +31 душно 1008.0 997.6 +33.8
19 15.06 ЮВ 2 20 км гроза без осадков 9/6 600 м
[Cb cap Ac As]
+23.8 +16.7 64 +27 +27 жарко 1009.0 998.5
20 15.06 штиль 0 20 км в посл. час гроза 8/5 1000 м
[Cu med, cong Ac und]
+22.3 +16.2 68 +26 +26 жарко 1009.4 998.9
21 15.06 штиль 0
{5}
20 км {гроза} 8/4 1050 м
[Cu med, cong Ac und]
+22.2 +16.3 69 +26 +26 душно 1009.1 998.6
22 15.06 ЮВ 1 20 км 4/3 1000 м
[Cu hum Ac lent]
+21.7 +16.7 73 +26 +26 душно 1009.0 998.6
23 15.06 З 1 20 км 3/3 1000 м
[Cu hum]
+21.4 +16.8 75 +25 +25 комфорт 1008.9 998.5
00 16.06 ЮВ 1
{5}
20 км {гроза} 3/3 1200 м
[Cu hum]
+20.8 +17.0 79 +26 +26 душно 1008.8 998.4
01 16.06 ЮВ 1 20 км 3/0
[Ac trans]
+20.5 +16.7 79 +25 +25 комфорт 1008.4 998.0
02 16.06 ЮВ 1 20 км 4/0
[Ac trans]
+20.1 +16.5 80 +24 +24 комфорт 1008.4 997.9
03 16.06 ЮЗ 1
{2}
20 км 4/0
[Ac trans]
+19.9 +16.9 83 +24 +24 комфорт 1008.4 997.9
04 16.06 Ю 1 20 км 4/0
[Ac trans]
+20.1 +17.1 83 +25 +26 комфорт 1008.8 998.3
05 16.06 Ю 1 20 км 5/3 1000 м
[Cu hum Ac trans]
+21.4 +17.2 77 +25 +28 комфорт 1008.9 998.4
06 16.06 ЮВ 2
{3}
20 км 6/4 1200 м
[Cu med, cong Ac lent]
+22.3 +17.5 74 +27 +31 душно 1009.1 998.6 +19.7
07 16.06 штиль 0 20 км 6/4 1000 м
[Cu med, cong Ac und]
+24.0 +18.0 69 +28 +36 душно 1009.2 998.6
08 16.06 С 2 20 км 6/5 1000 м
[Cu med, cong Ac und]
+26.9 +17.7 57 +31 +39 душно 1009.3 998.8
09 16.06 С 2
{5}
20 км 6/4 1200 м
[Cu med, cong Ac lent]
+27.5 +17.4 54 +32 +40 очень
душно
1009.3 998.8
10 16.06 С 3 20 км 6/4 1000 м
[Cu med, cong Ac lent]
+30.2 +16.9 45 +34 +42 очень
душно
1009.0 998.5
11 16.06 СЗ 3 20 км 5/4 1000 м
[Cu med, cong Ac lent]
+31.2 +17.1 43 +35 +44 очень
душно
1008.2 997.7
12 16.06 С 2
{7}
20 км 5/4 1200 м
[Cu med, cong Ac lent]
+31.8 +16.9 41 +35 +44 очень
душно
1007.5 997.1
13 16.06 С 3 20 км 6/4 1000 м
[Cu med, cong Ac und]
+32.7 +16.5 38 +36 +41 очень
душно
1006.9 996.5
14 16.06 С 2 20 км 5/4 1000 м
[Cu med, cong Ac lent]
+33.1 +16.8 38 +36 +41 очень
душно
1006.4 996.0
15 16.06 С 4
{8}
20 км 6/5 1080 м
[Cu med, cong Ac und]
+31.9 +17.0 41 +35 +37 очень
душно
1006.7 996.2
16 16.06 ЮВ 3 20 км гроза без осадков 8/6 600 м
[Cb cap Ac und]
+23.6 +14.6 57 +26 +27 жарко 1007.6 997.0
17 16.06 ЮЗ 1 20 км в посл. час гроза 5/4 1000 м
[Cu med, cong Ac lent]
+25.4 +16.0 56 +29 +29 душно 1007.9 997.3
18 16.06 ЮЗ 1
{8}
20 км {гроза} 8/8 1200 м
[Cu med, cong]
+23.7 +17.0 66 +27 +27 жарко 1008.6 998.0 +33.6
19 16.06 Ю 1 15 км слаб. ливневой дождь 8/8 1000 м
[Cu med, cong]
+25.3 +16.5 58 +29 +29 душно 1008.5 998.0
20 16.06 З 1 20 км в посл. час ливневой дождь 8/8 1000 м
[Cu med, cong]
+23.1 +17.8 72 +29 +29 очень
душно
1008.9 998.4
21 16.06 В 1
{3}
20 км {ливн. осадки} 6/6 1200 м
[Cu med, cong]
+22.5 +16.8 70 +27 +27 душно 1009.1 998.6
22 16.06 З 1 20 км 5/3 1000 м
[Cu med, cong Ac lent]
+22.0 +17.2 74 +26 +26 душно 1009.0 998.5
23 16.06 ЮВ 1 20 км 3/3 1000 м
[Cu hum]
+21.3 +17.5 79 +25 +25 комфорт 1009.0 998.5
00 17.06 З 1
{3}
20 км {ливн. осадки} 3/3 1200 м
[Cu hum]
+20.7 +17.5 82 +26 +26 душно 1008.4 997.9 0.0
01 17.06 штиль 0 18 км 4/0
[Ac trans]
+20.1 +17.1 83 +23 +23 комфорт 1007.7 997.3
02 17.06 Ю 1 17 км 4/0
[Ac trans]
+20.0 +17.2 84 +24 +24 комфорт 1007.9 997.5
03 17.06 штиль 0
{2}
18 км 4/0
[Ac trans]
+20.0 +17.4 85 +23 +23 комфорт 1008.2 997.7
04 17.06 штиль 0 10 км 9/5 1000 м
[Cu med, cong Ac und]
+20.1 +17.6 86 +23 +23 комфорт 1008.6 998.0
05 17.06 штиль 0 15 км слаб. ливневой дождь 9/6 600 м
[Cb cap Ac und]
+20.7 +17.9 84 +24 +25 комфорт 1009.2 998.6
06 17.06 С 1
{3}
18 км слаб. ливневой дождь 9/6 750 м
[Cb cap Ac und]
+23.0 +19.0 78 +29 +31 очень
душно
1009.3 998.7 +19.8 0.0
07 17.06 С 2 20 км в посл. час ливневой дождь 6/3 1000 м
[Cu med, cong Ac lent]
+26.7 +19.4 64 +32 +38 очень
душно
1008.7 998.2
08 17.06 С 2 20 км 4/4 1000 м
[Cu med, cong]
+28.9 +19.0 55 +34 +44 очень
душно
1009.0 998.5
09 17.06 СВ 1
{5}
20 км {ливн. осадки} 6/4 1140 м
[Cu med, cong Ac lent]
+27.8 +19.9 62 +34 +45 очень
душно
1008.9 998.4
10 17.06 ЮВ 3 20 км 6/4 1000 м
[Cu med, cong Ac lent]
+25.5 +20.1 72 +31 +40 очень
душно
1008.9 998.3
11 17.06 ЮВ 2 20 км в посл. час ливневой дождь 6/4 600 м
[Cb calv Ac lent]
+27.2 +19.6 63 +33 +42 очень
душно
1008.1 997.6
12 17.06 В 1
{6}
20 км зарница {ливн. осадки} 8/8 900 м
[Cb cap]
+29.2 +19.6 56 +35 +39 очень
душно
1007.6 997.1 0.2
13 17.06 СВ 1 20 км 5/3 600 м
[Cb cap Ac und]
+30.8 +18.5 48 +36 +44 очень
душно
1006.7 996.2
14 17.06 С 4 20 км гроза без осадков 8/5 600 м
[Cb cap Ac und]
+26.0 +16.0 54 +29 +31 душно 1008.2 997.6
15 17.06 С 3
{9}
20 км в посл. час гроза 6/5 900 м
[Cb cap Ac und]
+23.5 +15.6 61 +27 +28 душно 1007.7 997.1
16 17.06 С 2 15 км слаб. ливневой дождь, в посл. час гроза 9/6 1000 м
[Cu med, cong Ac As]
+21.7 +17.7 78 +26 +26 душно 1008.5 997.8
17 17.06 С 2 20 км в посл. час ливневой дождь 9/5 1000 м
[Cu med, cong Ac As]
+22.1 +17.3 74 +27 +27 душно 1008.5 997.9
18 17.06 С 1
{9}
{гроза} н/о +22.1 +18.1 78 +27 +27 душно 1008.1 997.5 +32.0 0.4
19 17.06 З 1 20 км 8/5 1000 м
[Cu med, cong Ac und]
+22.1 +18.1 78 +27 +27 душно 1009.1 998.6
20 17.06 В 1 20 км 8/5 1000 м
[Cu med, cong Ac und]
+22.0 +18.0 78 +27 +27 душно 1009.7 999.2
21 17.06 С 1
{3}
50 км ?/? +21.6 +16.6 73 +25 +25 комфорт 1009.2 998.7 260
22 17.06 СВ 1 20 км 6/4 1000 м
[Cu med, cong Ac und]
+21.4 +17.4 78 +25 +25 комфорт 1009.2 998.6
23 17.06 СЗ 1 20 км 6/4 1000 м
[Cu med, cong Ac und]
+21.0 +16.2 74 +26 +26 душно 1009.4 998.9
00 18.06 С 1
{3}
20 км 6/4 1200 м
[Cu med, cong Ac und]
+21.0 +16.0 73 +26 +26 душно 1009.2 998.7
01 18.06 В 1 20 км 6/4 1000 м
[Cu med, cong Ac und]
+21.0 +16.0 73 +26 +26 душно 1009.0 998.5
02 18.06 С 1 20 км 8/5 1000 м
[Cu med, cong Ac As]
+20.9 +16.1 74 +26 +26 душно 1009.3 998.7
03 18.06 С 1
{2}
20 км 6/4 1200 м
[Cu med, cong Ac und]
+20.7 +16.1 75 +25 +25 комфорт 1009.5 998.9
04 18.06 С 1 20 км 6/4 1000 м
[Cu med, cong Ac und]
+21.0 +16.8 77 +26 +27 душно 1009.7 999.0
05 18.06 С 1 20 км 8/5 1000 м
[Cu med, cong Ac As]
+22.1 +17.3 74 +27 +28 душно 1010.0 999.4
06 18.06 С 1
{2}
20 км 8/5 1200 м
[Cu med, cong Ac und]
+24.2 +18.2 69 +29 +31 душно 1010.4 999.8 +20.7
07 18.06 С 2 20 км 8/4 1000 м
[Cu med, cong Ac und]
+25.6 +18.4 64 +30 +34 душно 1010.5 999.9
08 18.06 С 2 20 км 8/4 1000 м
[Cu med, cong Ac und]
+27.8 +17.4 53 +32 +37 душно 1010.6 1000.1
09 18.06 С 2
{6}
20 км 6/4 1200 м
[Cu med, cong Ac lent]
+28.3 +18.2 54 +33 +41 очень
душно
1010.6 1000.1
10 18.06 С 2 20 км 6/5 600 м
[Cb calv Ac lent]
+30.2 +17.6 47 +34 +43 очень
душно
1010.0 999.5
11 18.06 С 2 20 км 4/4 1000 м
[Cu med, cong]
+31.4 +17.7 44 +36 +47 очень
душно
1009.4 998.9
12 18.06 С 2
{6}
20 км 5/5 1050 м
[Cu med, cong]
+32.6 +17.2 40 +36 +45 очень
душно
1008.7 998.3
13 18.06 С 3 20 км 6/6 600 м
[Cb calv]
+32.4 +16.2 38 +35 +40 душно 1008.5 998.1
14 18.06 С 2 20 км гроза без осадков 9/8 600 м
[Cb cap Ac As]
+29.5 +17.7 49 +34 +35 очень
душно
1008.8 998.3
15 18.06 С 3
{6}
20 км в посл. час гроза 9/6 900 м
[Cu med, cong Ac As]
+29.0 +17.2 49 +33 +34 очень
душно
1009.0 998.5
16 18.06 С 2 20 км 9/5 1000 м
[Cu med, cong Ac As]
+28.3 +17.5 52 +32 +33 душно 1009.4 998.9
17 18.06 С 2 20 км 8/4 1000 м
[Cu med, cong Ac und]
+27.0 +16.9 54 +31 +31 душно 1009.5 999.0
18 18.06 ЮВ 2
{6}
20 км {гроза} 8/4 1140 м
[Cu med, cong Ac und]
+24.2 +18.7 71 +29 +29 душно 1009.9 999.4 +33.2
19 18.06 ЮВ 1 20 км 8/4 1000 м
[Cu med, cong Ac und]
+23.2 +18.1 73 +29 +29 душно 1010.6 1000.1
20 18.06 В 1 20 км 9/5 1000 м
[Cu med, cong Ac und]
+22.8 +18.2 75 +28 +28 душно 1010.8 1000.3
21 18.06 Ю 1
{3}
20 км 5/3 1200 м
[Cu hum Ci fib]
+22.6 +18.4 77 +28 +28 душно 1010.6 1000.1
22 18.06 Ю 1 20 км 5/3 1000 м
[Cu hum Ci fib]
+22.1 +18.5 80 +27 +27 душно 1010.7 1000.2
23 18.06 ЮВ 1 20 км 6/3 1000 м
[Cu hum Ac lent]
+21.8 +18.6 82 +27 +27 душно 1010.2 999.7
00 19.06 штиль 0
{3}
20 км 8/4 1140 м
[Cu med, cong Ac lent]
+21.5 +18.5 83 +26 +26 душно 1009.7 999.3
01 19.06 С 1 20 км 8/4 1000 м
[Cu med, cong Ac lent]
+22.5 +17.2 72 +27 +27 душно 1009.3 998.9
02 19.06 С 1 20 км 8/4 1000 м
[Cu med, cong Ac lent]
+22.8 +16.9 69 +28 +28 душно 1009.4 998.9
03 19.06 С 1
{4}
20 км 8/4 1200 м
[Cu med, cong Ac lent]
+22.7 +17.4 72 +28 +28 душно 1009.7 999.2
04 19.06 С 1 20 км 8/4 1000 м
[Cu med, cong Ac lent]
+22.9 +17.6 72 +28 +29 душно 1009.7 999.2
05 19.06 СВ 1 20 км 8/4 1000 м
[Cu med, cong Ac lent]
+23.7 +18.0 70 +28 +29 душно 1010.1 999.6
06 19.06 Ю 1
{4}
20 км 9/4 1200 м
[Cu med, cong Ac lent]
+23.8 +18.3 71 +28 +30 душно 1010.4 999.8 +21.3
07 19.06 С 1 20 км 9/6 600 м
[Cb cap Ac As]
+25.2 +18.2 65 +30 +33 душно 1010.5 999.9
08 19.06 В 1 20 км 9/6 600 м
[Cb cap Ac As]
+26.0 +18.5 63 +31 +35 очень
душно
1010.3 999.8
09 19.06 С 1
{2}
20 км 9/5 1050 м
[Cu med, cong Ac und]
+27.3 +16.9 53 +31 +36 душно 1010.2 999.7
10 19.06 ЮВ 3 20 км 9/6 1000 м
[Cu med, cong Ac As]
+25.9 +19.4 67 +31 +35 очень
душно
1010.3 999.7
11 19.06 Ю 1 10 км гроза, ливневой дождь 9/6 600 м
[Cb cap Ac As]
+23.8 +20.1 80 +29 +34 душно 1010.4 999.8
12 19.06 СВ 1
{4}
15 км в посл. час гроза {ливн. осадки} 9/6 750 м
[Cb cap Ac As]
+25.3 +19.0 68 +30 +34 душно 1009.6 999.0 0.4
13 19.06 З 1 12 км осадки на расстоянии 9/8 600 м
[Cb cap Ac lent]
+25.3 +20.4 74 +31 +33 очень
душно
1009.2 998.6
14 19.06 СЗ 1 20 км 9/6 600 м
[Cb calv Ac und]
+27.5 +16.8 52 +31 +33 душно 1009.0 998.5
15 19.06 С 2
{3}
20 км 9/6 750 м
[Cb calv Ac und]
+27.0 +16.9 54 +31 +32 душно 1008.8 998.3
16 19.06 С 3 20 км 8/4 1000 м
[Cu med, cong Ac cast]
+28.2 +15.1 45 +31 +31 душно 1008.8 998.3

 

Местоположение метеостанции Акхисар (Турция): широта 38.92 долгота 27.85 высота над уровнем моря 93 м.

В архиве по умолчанию представлена погода в Акхисаре за последнюю неделю. Архивные данные за месяц целиком и за предыдущие месяцы, начиная с января 2011 года, Вы можете получить, выбрав интересующий диапазон дат из раскрывающегося списка и нажав кнопку "Ввод!".


*Определитесь, кто Вы:
робот инопланетянин человек

Внимание! Время в таблицах - всемирное. Для получения местного времени необходимо прибавить поправку, которая равна 2 ч.

Смотрите также архив погоды в соседних городах и на ближайших метеорологических станциях:

Погода в Манисе (Турция) (49 км)
Погода в Балыкесире (Турция) (78 км)
Погода в Измире (Турция) (80 км)
Погода в Измир / Сигли (Турция) (86 км)
Погода в Дикили (Турция) (86 км)
Погода в Измир аэропорту (Турция) (94 км)
Погода в Айвалыке (Турция) (108 км)
Погода в Митилини (Греция) (109 км)
Погода в Айдыне (Турция) (119 км)
Погода в Кушадасы (Турция) (128 км)

Пояснения к столбцам:

Ветер - указаны скорость ветра в м/с - средняя за 10 мин, порывы в срок и между сроками (в фигурных скобках) и направление, откуда дует ветер: С - северный, СВ - северо-восточный, В - восточный, ЮВ - юго-восточный, Ю - южный, ЮЗ - юго-западный, З - западный, СЗ - северо-западный.
Видимость - горизонтальная дальность видимости в метрах или километрах. При видимости от 1 до 10 км при отсутствии осадков обычно наблюдается дымка, при ухудшении видимости до 1 км и менее - туман. В сухую погоду видимость может ухудшаться дымом, пылью или мглою.
Явления - указаны атмосферные явления, наблюдавшиеся в срок или в последний час перед сроком; фигурными скобками обозначены явления, наблюдавшиеся между сроками (за 1-3 часа до срока); квадратными скобками обозначены град или гололедные отложения с указанием их диаметра в мм.
Облачность - указаны через наклонную черту общая и нижняя облачность в баллах и высота нижней границы облаков в метрах; квадратными скобками обозначены формы облаков: Ci - перистые, Cs - перисто-слоистые, Cc - перисто-кучевые, Ac - высококучевые, As - высокослоистые, Sc - слоисто-кучевые, Ns - слоисто-дождевые, Cu - кучевые, Cb - кучево-дождевые. Подробнее классификацию облаков см. в Атласе облаков (PDF).
T - Температура воздуха - температура, измеренная на высоте 2 м над землей.
Td - Температура точки росы - температура, при понижении до которой содержащийся в воздухе водяной пар достигнет насыщения.
f - Относительная влажность воздуха - влажноcть воздуха, измеренная на высоте 2 м над землей.
Te - Эффективная температура - температура, которую ощущает одетый по сезону человек в тени. Характеристика душности погоды. При расчете учитывается влияние влажности воздуха и скорости ветра на теплоощущения человека.
Tes - Эффективная температура на солнце - температура, которую ощущает человек, с поправкой на солнечный нагрев. Характеристика знойности погоды. Зависит от высоты солнца над горизонтом, облачности и скорости ветра. Ночью, в пасмурную погоду, а также при ветре 12 м/с и более поправка равна нулю.
P - Атмосферное давление - приведенное к уровню моря атмосферное давление.
Po - Атмосферное давление - измеренное на уровне метеостанции атмосферное давление.
Tmin - Минимальная температура - минимум температуры воздуха на высоте 2 м над землей.
Tmax - Максимальная температура - максимум температуры воздуха на высоте 2 м над землей.
R - Количество осадков - Количество выпавших осадков за период времени, мм. При наведении курсора мыши на число - период времени, за который выпало указанное количество осадков.
R24 - Количество осадков - Количество выпавших осадков за 24 часа, мм.
S - Снежный покров - Высота снежного покрова, см. При наведении курсора мыши на число - состояние снежного покрова и степень покрытия местности в баллах.